OneWeb SL0569

operational
NORAD ID: 55148 Int'l Des: 2023-004 Owner: ONEWEBN Country: UK Constellation: oneweb
LEOCIRCULARPOLARONEWEB_TYPE

关于 OneWeb SL0569

正在加载描述...

实时位置

正在加载3D地球...

即将过境

高度历史

Altitude vs Time

uPlot chart will show altitude changes over time

两行轨道根数

1 55148U 23004J 25351.24838144 .00000251 00000-0 65256-3 0 9997
2 55148 87.8987 356.3687 0001721 58.3197 301.8100 13.13471204146295
Epoch: Dec 17, 2025 • Age: 10 hours

当前状态

高度 1214.7 km
速度 7.25 km/s
星下点 36.62°N, 149.24°W
发射日期 Jan 10, 2023
运行时间 2.9 years
类型 internet

技术详情

分类 Payload
质量 148.00 kg
干质量 140.00 kg
总质量 148.00 kg
长度 1.30 m
直径 1.00 m
跨度 5.00 m
形状 Trapezoid+2 pan
制造商 ONEWUS
平台类型 ARROW
阶段状态 In Orbit
所有者/国家 ONEWEBN/UK

大型星座

Loading constellations...